| time (UTC) | temp C | wind direction | speed KPH | gust KPH | rain 1hr cm | rain 24hr cm | rain mn cm | humidity % | barometer mb |
| 20260507220059 | 12 | 179 | 0.0 | 0.0 | 0.00 | 0.41 | 0.41 | 1 | 1010.3 |
| 20260507215558 | 12 | 179 | 0.0 | 0.0 | 0.03 | 0.41 | 0.41 | 1 | 1010.4 |
| 20260507215056 | 12 | 179 | 0.0 | 0.0 | 0.05 | 0.41 | 0.41 | 1 | 1010.5 |
| 20260507214556 | 12 | 179 | 0.0 | 0.0 | 0.13 | 0.41 | 0.41 | 1 | 1010.6 |
| 20260507214053 | 12 | 179 | 0.0 | 0.0 | 0.15 | 0.41 | 0.41 | 1 | 1010.5 |
| 20260507213551 | 12 | 179 | 0.0 | 0.0 | 0.15 | 0.41 | 0.41 | 1 | 1010.4 |
| 20260507213055 | 12 | 179 | 0.0 | 0.0 | 0.18 | 0.41 | 0.41 | 1 | 1010.4 |
| 20260507212548 | 12 | 179 | 0.0 | 0.0 | 0.18 | 0.41 | 0.41 | 1 | 1010.5 |
| 20260507212047 | 12 | 161 | 0.0 | 0.0 | 0.18 | 0.41 | 0.41 | 1 | 1010.4 |
| 20260507211551 | 12 | 161 | 0.0 | 0.0 | 0.18 | 0.41 | 0.41 | 1 | 1010.2 |
| 20260507211044 | 12 | 161 | 0.0 | 0.0 | 0.18 | 0.41 | 0.41 | 1 | 1010.3 |
| 20260507210543 | 12 | 161 | 0.0 | 0.0 | 0.18 | 0.41 | 0.41 | 1 | 1010.5 |
| 20260507210042 | 12 | 158 | 0.0 | 0.0 | 0.18 | 0.41 | 0.41 | 1 | 1010.6 |
| 20260507205540 | 12 | 158 | 0.0 | 0.0 | 0.15 | 0.38 | 0.38 | 1 | 1010.5 |
| 20260507205039 | 12 | 158 | 0.0 | 0.0 | 0.13 | 0.36 | 0.36 | 1 | 1010.7 |
| 20260507204537 | 12 | 158 | 0.0 | 0.0 | 0.08 | 0.28 | 0.28 | 1 | 1010.8 |
| 20260507204036 | 12 | 158 | 0.0 | 0.0 | 0.08 | 0.25 | 0.25 | 1 | 1010.6 |
| 20260507203534 | 12 | 158 | 0.0 | 0.0 | 0.13 | 0.25 | 0.25 | 1 | 1010.9 |
| 20260507203032 | 12 | 158 | 0.0 | 0.0 | 0.10 | 0.23 | 0.23 | 1 | 1010.8 |
| 20260507202530 | 12 | 158 | 0.0 | 0.0 | 0.10 | 0.23 | 0.23 | 1 | 1010.6 |
| 20260507202029 | 13 | 158 | 0.0 | 0.0 | 0.10 | 0.23 | 0.23 | 1 | 1010.9 |
| 20260507201536 | 13 | 158 | 0.0 | 0.0 | 0.10 | 0.23 | 0.23 | 1 | 1010.9 |
| 20260507201027 | 13 | 158 | 0.0 | 0.0 | 0.10 | 0.23 | 0.23 | 1 | 1010.7 |
| 20260507200525 | 13 | 158 | 0.0 | 0.0 | 0.10 | 0.23 | 0.23 | 1 | 1010.8 |
| 20260507200032 | 13 | 158 | 0.0 | 0.0 | 0.10 | 0.23 | 0.23 | 1 | 1010.9 |
| 20260507195525 | 13 | 158 | 0.0 | 0.0 | 0.10 | 0.23 | 0.23 | 1 | 1010.9 |
| 20260507195023 | 13 | 158 | 0.0 | 0.0 | 0.10 | 0.23 | 0.23 | 1 | 1011.0 |
| 20260507194519 | 13 | 158 | 0.0 | 0.0 | 0.08 | 0.20 | 0.20 | 1 | 1010.8 |
| 20260507194017 | 13 | 158 | 0.0 | 0.0 | 0.05 | 0.18 | 0.18 | 1 | 1010.8 |
| 20260507193516 | 13 | 158 | 0.0 | 0.0 | 0.00 | 0.13 | 0.13 | 2 | 1010.9 |
| 20260507193020 | 13 | 158 | 0.0 | 0.0 | 0.00 | 0.13 | 0.13 | 6 | 1011.0 |
| 20260507192514 | 13 | 158 | 0.0 | 0.0 | 0.00 | 0.13 | 0.13 | 9 | 1011.1 |
| 20260507192011 | 13 | 158 | 0.0 | 0.0 | 0.00 | 0.13 | 0.13 | 15 | 1011.0 |
| 20260507191516 | 13 | 158 | 0.0 | 0.0 | 0.00 | 0.13 | 0.13 | 17 | 1011.0 |
| 20260507191009 | 13 | 158 | 0.0 | 0.0 | 0.00 | 0.13 | 0.13 | 21 | 1011.2 |
| 20260507190508 | 13 | 158 | 0.0 | 0.0 | 0.00 | 0.13 | 0.13 | 25 | 1011.0 |
| 20260507190006 | 13 | 158 | 0.0 | 0.0 | 0.00 | 0.13 | 0.13 | 25 | 1011.2 |
| 20260507185504 | 13 | 158 | 0.0 | 1.6 | 0.00 | 0.15 | 0.13 | 25 | 1011.2 |
| 20260507185003 | 13 | 158 | 0.0 | 4.8 | 0.00 | 0.15 | 0.13 | 26 | 1011.0 |
| 20260507184602 | 13 | 158 | 0.0 | 4.8 | 0.00 | 0.15 | 0.13 | 26 | 1011.1 |
| 20260507184101 | 13 | 305 | 0.0 | 4.8 | 0.00 | 0.15 | 0.13 | 25 | 1011.0 |
| 20260507183602 | 13 | 302 | 1.6 | 4.8 | 0.00 | 0.15 | 0.13 | 24 | 1011.0 |
| 20260507183105 | 13 | 326 | 0.0 | 0.0 | 0.00 | 0.15 | 0.13 | 25 | 1010.9 |
| 20260507182556 | 13 | 325 | 0.0 | 3.2 | 0.00 | 0.15 | 0.13 | 27 | 1011.1 |
| 20260507182055 | 13 | 325 | 0.0 | 6.4 | 0.00 | 0.15 | 0.13 | 29 | 1011.3 |
| 20260507181554 | 13 | 325 | 0.0 | 6.4 | 0.00 | 0.15 | 0.13 | 29 | 1011.2 |
| 20260507181051 | 13 | 265 | 0.0 | 6.4 | 0.00 | 0.15 | 0.13 | 28 | 1011.1 |
| 20260507180550 | 13 | 265 | 1.6 | 6.4 | 0.00 | 0.15 | 0.13 | 29 | 1011.2 |
| 20260507180054 | 13 | 253 | 1.6 | 8.0 | 0.00 | 0.15 | 0.13 | 26 | 1011.1 |
| 20260507175547 | 13 | 286 | 1.6 | 11.3 | 0.00 | 0.15 | 0.13 | 21 | 1011.2 |
| 20260507175046 | 12 | 246 | 1.6 | 11.3 | 0.00 | 0.15 | 0.13 | 22 | 1011.1 |
| 20260507174545 | 12 | 311 | 0.0 | 4.8 | 0.00 | 0.15 | 0.13 | 20 | 1011.4 |
| 20260507174043 | 12 | 311 | 0.0 | 4.8 | 0.00 | 0.15 | 0.13 | 19 | 1011.3 |
| 20260507173543 | 12 | 100 | 0.0 | 4.8 | 0.00 | 0.15 | 0.13 | 18 | 1011.5 |
| 20260507173055 | 12 | 281 | 0.0 | 4.8 | 0.00 | 0.15 | 0.13 | 14 | 1011.8 |
| 20260507172539 | 12 | 355 | 1.6 | 6.4 | 0.00 | 0.15 | 0.13 | 8 | 1011.6 |
| 20260507172040 | 12 | 322 | 1.6 | 9.7 | 0.00 | 0.15 | 0.13 | 2 | 1011.5 |
| 20260507171537 | 12 | 141 | 1.6 | 9.7 | 0.00 | 0.15 | 0.13 | 1 | 1011.5 |
| 20260507171034 | 12 | 286 | 0.0 | 6.4 | 0.00 | 0.15 | 0.13 | 1 | 1011.7 |
| 20260507170536 | 12 | 304 | 0.0 | 6.4 | 0.00 | 0.15 | 0.13 | 1 | 1011.6 |
| 20260507170045 | 12 | 196 | 0.0 | 6.4 | 0.00 | 0.15 | 0.13 | 1 | 1011.9 |
| 20260507165530 | 12 | 281 | 0.0 | 4.8 | 0.00 | 0.15 | 0.13 | 1 | 1012.1 |
| 20260507165028 | 12 | 280 | 0.0 | 9.7 | 0.00 | 0.15 | 0.13 | 1 | 1012.1 |
| 20260507164527 | 13 | 315 | 0.0 | 9.7 | 0.00 | 0.15 | 0.13 | 1 | 1012.2 |
| 20260507164027 | 13 | 248 | 0.0 | 8.0 | 0.00 | 0.15 | 0.13 | 1 | 1012.1 |
| 20260507163525 | 12 | 261 | 0.0 | 12.9 | 0.00 | 0.15 | 0.13 | 1 | 1012.3 |
| 20260507163024 | 12 | 246 | 0.0 | 3.2 | 0.00 | 0.15 | 0.13 | 1 | 1012.1 |
| 20260507162521 | 12 | 246 | 0.0 | 3.2 | 0.00 | 0.15 | 0.13 | 1 | 1012.3 |
| 20260507162020 | 12 | 246 | 0.0 | 4.8 | 0.00 | 0.15 | 0.13 | 1 | 1012.0 |
| 20260507161518 | 12 | 140 | 0.0 | 3.2 | 0.00 | 0.15 | 0.13 | 1 | 1012.1 |
| 20260507161016 | 12 | 148 | 0.0 | 4.8 | 0.00 | 0.15 | 0.13 | 1 | 1012.2 |
| 20260507160516 | 12 | 151 | 0.0 | 4.8 | 0.00 | 0.15 | 0.13 | 1 | 1012.2 |
| 20260507160014 | 12 | 325 | 0.0 | 8.0 | 0.00 | 0.15 | 0.13 | 1 | 1012.2 |
| 20260507155513 | 12 | 326 | 0.0 | 8.0 | 0.00 | 0.15 | 0.13 | 1 | 1012.2 |
| 20260507155010 | 12 | 200 | 0.0 | 6.4 | 0.00 | 0.15 | 0.13 | 1 | 1012.2 |
| 20260507154510 | 13 | 332 | 0.0 | 4.8 | 0.00 | 0.15 | 0.13 | 1 | 1012.2 |
| 20260507154009 | 13 | 60 | 0.0 | 0.0 | 0.00 | 0.15 | 0.13 | 1 | 1012.2 |
| 20260507153506 | 13 | 60 | 0.0 | 0.0 | 0.00 | 0.15 | 0.13 | 1 | 1012.4 |
| 20260507153004 | 13 | 60 | 0.0 | 6.4 | 0.00 | 0.15 | 0.13 | 1 | 1012.3 |
| 20260507152504 | 13 | 61 | 1.6 | 6.4 | 0.00 | 0.15 | 0.13 | 1 | 1012.2 |
| 20260507152103 | 13 | 258 | 0.0 | 6.4 | 0.00 | 0.15 | 0.13 | 1 | 1012.2 |
| 20260507151601 | 13 | 280 | 1.6 | 4.8 | 0.00 | 0.15 | 0.13 | 1 | 1012.1 |
| 20260507151059 | 13 | 298 | 0.0 | 0.0 | 0.00 | 0.15 | 0.13 | 1 | 1012.2 |
| 20260507150557 | 13 | 298 | 0.0 | 0.0 | 0.00 | 0.15 | 0.13 | 1 | 1012.2 |
| 20260507150108 | 13 | 299 | 0.0 | 0.0 | 0.00 | 0.15 | 0.13 | 1 | 1012.3 |
| 20260507145556 | 13 | 299 | 0.0 | 0.0 | 0.00 | 0.30 | 0.13 | 1 | 1012.5 |
| 20260507145052 | 13 | 300 | 0.0 | 0.0 | 0.00 | 0.30 | 0.13 | 1 | 1012.3 |
| 20260507144551 | 13 | 300 | 0.0 | 0.0 | 0.00 | 0.30 | 0.13 | 1 | 1012.1 |
| 20260507144050 | 13 | 304 | 0.0 | 4.8 | 0.00 | 0.30 | 0.13 | 1 | 1011.8 |
| 20260507143548 | 13 | 304 | 0.0 | 4.8 | 0.00 | 0.30 | 0.13 | 1 | 1011.8 |
| 20260507143059 | 13 | 286 | 0.0 | 3.2 | 0.00 | 0.30 | 0.13 | 1 | 1012.1 |
| 20260507142545 | 13 | 286 | 0.0 | 3.2 | 0.00 | 0.30 | 0.13 | 1 | 1012.1 |
| 20260507142043 | 13 | 283 | 0.0 | 3.2 | 0.00 | 0.30 | 0.13 | 1 | 1012.1 |
| 20260507141542 | 13 | 282 | 0.0 | 6.4 | 0.00 | 0.30 | 0.13 | 1 | 1012.2 |
| 20260507141042 | 13 | 281 | 0.0 | 6.4 | 0.00 | 0.30 | 0.13 | 1 | 1012.3 |
| 20260507140540 | 13 | 270 | 0.0 | 8.0 | 0.00 | 0.30 | 0.13 | 1 | 1012.3 |
| 20260507140039 | 13 | 208 | 0.0 | 3.2 | 0.00 | 0.30 | 0.13 | 1 | 1012.4 |
| 20260507135539 | 13 | 208 | 0.0 | 3.2 | 0.00 | 0.30 | 0.13 | 1 | 1012.4 |
| 20260507135035 | 13 | 206 | 0.0 | 0.0 | 0.00 | 0.30 | 0.13 | 1 | 1012.3 |
| 20260507134534 | 13 | 206 | 0.0 | 3.2 | 0.00 | 0.30 | 0.13 | 1 | 1012.4 |
| 20260507134032 | 13 | 206 | 0.0 | 3.2 | 0.00 | 0.30 | 0.13 | 1 | 1012.4 |
| 20260507133533 | 13 | 206 | 0.0 | 4.8 | 0.00 | 0.30 | 0.13 | 1 | 1012.2 |
| 20260507133029 | 13 | 206 | 0.0 | 4.8 | 0.00 | 0.30 | 0.13 | 1 | 1012.2 |
| 20260507132527 | 13 | 296 | 0.0 | 3.2 | 0.00 | 0.30 | 0.13 | 1 | 1012.0 |
| 20260507132027 | 13 | 292 | 0.0 | 3.2 | 0.00 | 0.30 | 0.13 | 1 | 1012.1 |
| 20260507131528 | 13 | 331 | 0.0 | 6.4 | 0.00 | 0.30 | 0.13 | 1 | 1011.9 |
| 20260507131027 | 13 | 312 | 0.0 | 9.7 | 0.00 | 0.30 | 0.13 | 1 | 1012.1 |
| 20260507130522 | 13 | 328 | 0.0 | 9.7 | 0.00 | 0.30 | 0.13 | 1 | 1012.1 |
| 20260507130020 | 13 | 315 | 1.6 | 8.0 | 0.00 | 0.30 | 0.13 | 1 | 1011.7 |
| 20260507125520 | 13 | 296 | 0.0 | 4.8 | 0.00 | 0.30 | 0.13 | 1 | 1011.7 |
| 20260507125017 | 13 | 333 | 0.0 | 4.8 | 0.00 | 0.30 | 0.13 | 1 | 1012.1 |
| 20260507124516 | 13 | 132 | 0.0 | 4.8 | 0.00 | 0.30 | 0.13 | 1 | 1012.1 |
| 20260507124015 | 13 | 299 | 0.0 | 4.8 | 0.00 | 0.30 | 0.13 | 1 | 1011.9 |
| 20260507123514 | 13 | 300 | 0.0 | 4.8 | 0.00 | 0.30 | 0.13 | 1 | 1011.9 |
| 20260507123017 | 13 | 262 | 0.0 | 0.0 | 0.00 | 0.30 | 0.13 | 1 | 1012.1 |
| 20260507122510 | 13 | 259 | 0.0 | 3.2 | 0.00 | 0.30 | 0.13 | 1 | 1011.9 |
| 20260507122011 | 13 | 259 | 0.0 | 3.2 | 0.00 | 0.30 | 0.13 | 1 | 1011.7 |
| 20260507121507 | 13 | 223 | 0.0 | 3.2 | 0.00 | 0.30 | 0.13 | 1 | 1011.6 |
| 20260507121006 | 13 | 223 | 0.0 | 4.8 | 0.00 | 0.30 | 0.13 | 1 | 1011.8 |
| 20260507120504 | 13 | 223 | 0.0 | 4.8 | 0.00 | 0.30 | 0.13 | 1 | 1011.7 |
| 20260507120003 | 13 | 223 | 0.0 | 0.0 | 0.00 | 0.30 | 0.13 | 1 | 1011.8 |
| 20260507115503 | 13 | 223 | 0.0 | 0.0 | 0.00 | 0.30 | 0.13 | 1 | 1011.8 |
| 20260507115100 | 13 | 223 | 0.0 | 0.0 | 0.00 | 0.30 | 0.13 | 1 | 1011.9 |
| 20260507114601 | 13 | 223 | 0.0 | 4.8 | 0.00 | 0.30 | 0.13 | 1 | 1012.1 |
| 20260507114057 | 13 | 223 | 0.0 | 4.8 | 0.00 | 0.30 | 0.13 | 1 | 1012.1 |
| 20260507113556 | 13 | 322 | 0.0 | 1.6 | 0.00 | 0.30 | 0.13 | 1 | 1012.0 |
| 20260507113054 | 13 | 322 | 0.0 | 1.6 | 0.00 | 0.30 | 0.13 | 1 | 1011.8 |
| 20260507112554 | 13 | 325 | 0.0 | 0.0 | 0.00 | 0.30 | 0.13 | 1 | 1011.7 |
| 20260507112054 | 13 | 325 | 0.0 | 0.0 | 0.00 | 0.30 | 0.13 | 1 | 1011.7 |
| 20260507111550 | 13 | 325 | 0.0 | 0.0 | 0.00 | 0.30 | 0.13 | 1 | 1011.3 |
| 20260507111047 | 13 | 325 | 0.0 | 0.0 | 0.00 | 0.30 | 0.13 | 1 | 1011.3 |
| 20260507110546 | 13 | 325 | 0.0 | 0.0 | 0.00 | 0.30 | 0.13 | 1 | 1011.7 |
| 20260507110056 | 13 | 325 | 0.0 | 0.0 | 0.00 | 0.30 | 0.13 | 1 | 1011.7 |
| 20260507105544 | 13 | 325 | 0.0 | 0.0 | 0.03 | 0.30 | 0.13 | 1 | 1011.5 |
| 20260507105042 | 13 | 325 | 0.0 | 0.0 | 0.03 | 0.30 | 0.13 | 1 | 1011.4 |
| 20260507104548 | 13 | 325 | 0.0 | 0.0 | 0.03 | 0.30 | 0.13 | 1 | 1011.4 |
| 20260507104039 | 13 | 325 | 0.0 | 0.0 | 0.05 | 0.30 | 0.13 | 1 | 1011.2 |
| 20260507103541 | 13 | 325 | 0.0 | 3.2 | 0.05 | 0.30 | 0.13 | 1 | 1011.2 |
| 20260507103055 | 13 | 321 | 0.0 | 0.0 | 0.05 | 0.30 | 0.13 | 1 | 1011.1 |
| 20260507102534 | 13 | 321 | 0.0 | 0.0 | 0.05 | 0.30 | 0.13 | 1 | 1010.9 |
| 20260507102033 | 14 | 321 | 0.0 | 0.0 | 0.05 | 0.30 | 0.13 | 1 | 1010.8 |
| 20260507101535 | 14 | 339 | 0.0 | 0.0 | 0.05 | 0.30 | 0.13 | 1 | 1010.9 |
| 20260507101032 | 14 | 339 | 0.0 | 0.0 | 0.05 | 0.30 | 0.13 | 1 | 1010.9 |
| 20260507100529 | 14 | 344 | 0.0 | 0.0 | 0.05 | 0.30 | 0.13 | 1 | 1011.0 |
| 20260507100029 | 14 | 344 | 0.0 | 0.0 | 0.08 | 0.30 | 0.13 | 1 | 1011.2 |
| 20260507095526 | 14 | 344 | 0.0 | 3.2 | 0.05 | 0.28 | 0.10 | 1 | 1011.2 |
| 20260507095025 | 15 | 344 | 0.0 | 6.4 | 0.08 | 0.28 | 0.10 | 1 | 1011.2 |
| 20260507094523 | 15 | 355 | 1.6 | 6.4 | 0.08 | 0.28 | 0.10 | 1 | 1010.9 |
| 20260507094021 | 15 | 327 | 0.0 | 4.8 | 0.08 | 0.25 | 0.08 | 1 | 1010.8 |
| 20260507093523 | 15 | 327 | 0.0 | 6.4 | 0.08 | 0.25 | 0.08 | 1 | 1011.1 |
| 20260507093018 | 15 | 327 | 0.0 | 3.2 | 0.08 | 0.25 | 0.08 | 1 | 1011.2 |
| 20260507092517 | 15 | 327 | 1.6 | 3.2 | 0.08 | 0.25 | 0.08 | 1 | 1011.0 |
| 20260507092016 | 15 | 327 | 0.0 | 9.7 | 0.08 | 0.25 | 0.08 | 1 | 1011.1 |
| 20260507091514 | 15 | 327 | 0.0 | 9.7 | 0.08 | 0.25 | 0.08 | 1 | 1011.0 |
| 20260507091012 | 16 | 141 | 0.0 | 6.4 | 0.08 | 0.25 | 0.08 | 1 | 1010.9 |
| 20260507090510 | 16 | 289 | 0.0 | 4.8 | 0.08 | 0.25 | 0.08 | 1 | 1010.8 |
| 20260507090011 | 16 | 328 | 0.0 | 8.0 | 0.05 | 0.23 | 0.05 | 1 | 1010.8 |
| 20260507085508 | 16 | 322 | 0.0 | 12.9 | 0.05 | 0.23 | 0.05 | 1 | 1010.8 |
| 20260507085010 | 17 | 328 | 1.6 | 12.9 | 0.03 | 0.20 | 0.03 | 1 | 1010.7 |
| 20260507084519 | 17 | 274 | 1.6 | 8.0 | 0.00 | 0.18 | 0.00 | 1 | 1010.8 |
| 20260507084004 | 18 | 191 | 1.6 | 8.0 | 0.00 | 0.18 | 0.00 | 1 | 1010.5 |
| 20260507083502 | 18 | 334 | 1.6 | 9.7 | 0.00 | 0.18 | 0.00 | 1 | 1010.4 |
| 20260507082601 | 19 | 319 | 0.0 | 4.8 | 0.00 | 0.18 | 0.00 | 1 | 1009.9 |
| 20260507082101 | 20 | 210 | 0.0 | 0.0 | 0.00 | 0.18 | 0.00 | 1 | 1010.0 |
| 20260507081559 | 20 | 210 | 0.0 | 0.0 | 0.00 | 0.18 | 0.00 | 1 | 1010.1 |
| 20260507081055 | 20 | 210 | 0.0 | 0.0 | 0.00 | 0.18 | 0.00 | 1 | 1010.1 |
| 20260507080553 | 20 | 210 | 0.0 | 0.0 | 0.00 | 0.18 | 0.00 | 1 | 1010.1 |
| 20260507080055 | 20 | 210 | 0.0 | 0.0 | 0.00 | 0.18 | 0.00 | 1 | 1010.0 |
| 20260507075554 | 20 | 210 | 0.0 | 0.0 | 0.00 | 0.18 | 0.00 | 1 | 1009.9 |
| 20260507075051 | 20 | 210 | 0.0 | 0.0 | 0.00 | 0.18 | 0.00 | 1 | 1009.5 |
| 20260507074552 | 20 | 210 | 0.0 | 0.0 | 0.00 | 0.18 | 0.00 | 1 | 1009.2 |
| 20260507074047 | 20 | 210 | 0.0 | 0.0 | 0.00 | 0.18 | 0.00 | 1 | 1009.4 |
| 20260507073546 | 20 | 210 | 0.0 | 0.0 | 0.00 | 0.18 | 0.00 | 1 | 1009.5 |
| 20260507073045 | 20 | 210 | 0.0 | 0.0 | 0.00 | 0.18 | 0.00 | 1 | 1009.6 |
| 20260507072543 | 20 | 210 | 0.0 | 0.0 | 0.00 | 0.18 | 0.00 | 1 | 1009.4 |
| 20260507072041 | 20 | 210 | 0.0 | 0.0 | 0.00 | 0.18 | 0.00 | 1 | 1009.6 |
| 20260507071541 | 20 | 210 | 0.0 | 4.8 | 0.00 | 0.18 | 0.00 | 1 | 1009.3 |
| 20260507071038 | 20 | 210 | 1.6 | 4.8 | 0.00 | 0.18 | 0.00 | 1 | 1009.8 |
| 20260507070537 | 20 | 210 | 0.0 | 4.8 | 0.00 | 0.18 | 0.00 | 1 | 1009.7 |
| 20260507070053 | 20 | 209 | 1.6 | 6.4 | 0.00 | 0.18 | 0.00 | 1 | 1009.7 |
| 20260507065534 | 20 | 192 | 1.6 | 4.8 | 0.00 | 0.18 | 0.00 | 1 | 1009.3 |
| 20260507065033 | 20 | 192 | 0.0 | 4.8 | 0.00 | 0.18 | 0.00 | 1 | 1009.4 |
| 20260507064531 | 20 | 192 | 1.6 | 4.8 | 0.00 | 0.18 | 0.00 | 1 | 1009.5 |
| 20260507064030 | 20 | 192 | 0.0 | 4.8 | 0.00 | 0.18 | 0.00 | 1 | 1009.4 |
| 20260507063529 | 20 | 190 | 0.0 | 3.2 | 0.00 | 0.18 | 0.00 | 1 | 1009.3 |
| 20260507063027 | 20 | 193 | 0.0 | 4.8 | 0.00 | 0.18 | 0.00 | 1 | 1009.1 |
| 20260507062524 | 20 | 193 | 0.0 | 4.8 | 0.00 | 0.18 | 0.00 | 1 | 1009.1 |
| 20260507062024 | 20 | 153 | 0.0 | 0.0 | 0.00 | 0.18 | 0.00 | 1 | 1009.1 |
| 20260507061522 | 20 | 153 | 0.0 | 6.4 | 0.00 | 0.18 | 0.00 | 1 | 1008.9 |
| 20260507061020 | 20 | 153 | 0.0 | 6.4 | 0.00 | 0.18 | 0.00 | 1 | 1008.9 |
| 20260507060518 | 20 | 193 | 0.0 | 0.0 | 0.00 | 0.18 | 0.00 | 1 | 1008.9 |
| 20260507060021 | 20 | 197 | 0.0 | 0.0 | 0.00 | 0.18 | 0.00 | 1 | 1009.0 |
| 20260507055516 | 20 | 196 | 0.0 | 0.0 | 0.00 | 0.18 | 0.00 | 1 | 1008.9 |
| 20260507055014 | 20 | 196 | 0.0 | 3.2 | 0.00 | 0.18 | 0.00 | 1 | 1009.1 |
| 20260507054512 | 20 | 196 | 0.0 | 3.2 | 0.00 | 0.18 | 0.00 | 1 | 1009.4 |
| 20260507054015 | 20 | 196 | 0.0 | 0.0 | 0.00 | 0.18 | 0.00 | 1 | 1009.3 |
| 20260507053510 | 20 | 196 | 0.0 | 0.0 | 0.00 | 0.18 | 0.00 | 1 | 1009.1 |
| 20260507053009 | 20 | 199 | 0.0 | 1.6 | 0.00 | 0.18 | 0.00 | 1 | 1009.1 |
| 20260507052507 | 20 | 199 | 0.0 | 4.8 | 0.00 | 0.18 | 0.00 | 1 | 1009.2 |
| 20260507052005 | 20 | 199 | 0.0 | 3.2 | 0.00 | 0.18 | 0.00 | 1 | 1009.4 |
| 20260507051504 | 20 | 199 | 0.0 | 3.2 | 0.00 | 0.18 | 0.00 | 1 | 1009.6 |
| 20260507051002 | 20 | 199 | 0.0 | 4.8 | 0.00 | 0.18 | 0.00 | 1 | 1009.7 |
| 20260507050502 | 20 | 199 | 0.0 | 4.8 | 0.00 | 0.18 | 0.00 | 1 | 1009.9 |
| 20260507050100 | 20 | 199 | 0.0 | 8.0 | 0.00 | 0.18 | 0.00 | 1 | 1010.1 |
| 20260507045559 | 20 | 162 | 1.6 | 8.0 | 0.00 | 0.18 | 0.00 | 1 | 1010.2 |
| 20260507045057 | 20 | 209 | 1.6 | 6.4 | 0.00 | 0.18 | 0.00 | 1 | 1010.3 |
| 20260507044559 | 20 | 208 | 3.2 | 6.4 | 0.00 | 0.18 | 0.00 | 1 | 1010.3 |
| 20260507044056 | 20 | 207 | 3.2 | 8.0 | 0.00 | 0.18 | 0.00 | 1 | 1010.2 |
| 20260507043553 | 20 | 201 | 4.8 | 8.0 | 0.00 | 0.18 | 0.00 | 1 | 1010.2 |
| 20260507043052 | 20 | 218 | 3.2 | 9.7 | 0.00 | 0.18 | 0.00 | 1 | 1010.4 |
| 20260507042553 | 20 | 173 | 3.2 | 4.8 | 0.00 | 0.18 | 0.00 | 1 | 1010.4 |
| 20260507042048 | 20 | 211 | 1.6 | 6.4 | 0.00 | 0.18 | 0.00 | 1 | 1010.5 |
| 20260507041559 | 20 | 211 | 0.0 | 6.4 | 0.00 | 0.18 | 0.00 | 1 | 1010.4 |
| 20260507041045 | 20 | 209 | 1.6 | 4.8 | 0.00 | 0.18 | 0.00 | 1 | 1010.4 |
| 20260507040544 | 20 | 210 | 0.0 | 3.2 | 0.00 | 0.18 | 0.00 | 1 | 1010.2 |
| 20260507040044 | 20 | 211 | 0.0 | 4.8 | 0.00 | 0.18 | 0.00 | 1 | 1010.2 |
| 20260507035542 | 20 | 211 | 0.0 | 6.4 | 0.00 | 0.18 | 0.18 | 1 | 1010.1 |
| 20260507035042 | 20 | 216 | 1.6 | 6.4 | 0.00 | 0.18 | 0.18 | 1 | 1010.4 |
| 20260507034542 | 20 | 189 | 0.0 | 4.8 | 0.00 | 0.18 | 0.18 | 1 | 1010.4 |
| 20260507034041 | 20 | 187 | 1.6 | 4.8 | 0.00 | 0.18 | 0.18 | 1 | 1010.5 |
| 20260507033541 | 20 | 188 | 0.0 | 4.8 | 0.00 | 0.18 | 0.18 | 1 | 1010.3 |
| 20260507033042 | 20 | 182 | 0.0 | 3.2 | 0.00 | 0.18 | 0.18 | 1 | 1010.4 |
| 20260507032542 | 20 | 182 | 0.0 | 3.2 | 0.00 | 0.18 | 0.18 | 1 | 1010.0 |
| 20260507032041 | 20 | 188 | 0.0 | 4.8 | 0.00 | 0.18 | 0.18 | 1 | 1010.0 |
| 20260507031542 | 20 | 192 | 0.0 | 4.8 | 0.00 | 0.18 | 0.18 | 1 | 1009.8 |
| 20260507031041 | 20 | 192 | 0.0 | 3.2 | 0.00 | 0.18 | 0.18 | 1 | 1009.9 |
| 20260507030541 | 20 | 192 | 0.0 | 4.8 | 0.00 | 0.18 | 0.18 | 1 | 1010.0 |
| 20260507030041 | 20 | 192 | 0.0 | 4.8 | 0.00 | 0.18 | 0.18 | 1 | 1010.0 |
| 20260507025540 | 20 | 192 | 0.0 | 14.5 | 0.00 | 0.18 | 0.18 | 1 | 1009.9 |
| 20260507025040 | 20 | 192 | 1.6 | 14.5 | 0.00 | 0.18 | 0.18 | 1 | 1009.8 |
| 20260507024540 | 20 | 144 | 0.0 | 4.8 | 0.00 | 0.18 | 0.18 | 1 | 1009.8 |
| 20260507024040 | 20 | 143 | 0.0 | 0.0 | 0.00 | 0.18 | 0.18 | 1 | 1009.9 |
| 20260507023539 | 20 | 143 | 0.0 | 6.4 | 0.00 | 0.18 | 0.18 | 1 | 1010.1 |
| 20260507023039 | 20 | 143 | 1.6 | 6.4 | 0.00 | 0.18 | 0.18 | 1 | 1010.1 |
| 20260507022539 | 20 | 164 | 0.0 | 3.2 | 0.00 | 0.18 | 0.18 | 1 | 1010.1 |
| 20260507022040 | 20 | 164 | 0.0 | 3.2 | 0.00 | 0.18 | 0.18 | 1 | 1010.2 |
| 20260507021540 | 20 | 164 | 0.0 | 6.4 | 0.00 | 0.18 | 0.18 | 1 | 1010.3 |
| 20260507021038 | 20 | 164 | 1.6 | 6.4 | 0.00 | 0.18 | 0.18 | 1 | 1010.2 |
| 20260507020537 | 20 | 146 | 0.0 | 0.0 | 0.00 | 0.18 | 0.18 | 1 | 1010.4 |
| 20260507020041 | 20 | 146 | 0.0 | 8.0 | 0.00 | 0.18 | 0.18 | 1 | 1010.5 |
| 20260507015533 | 20 | 146 | 0.0 | 8.0 | 0.00 | 0.18 | 0.18 | 1 | 1010.5 |
| 20260507015032 | 20 | 166 | 0.0 | 3.2 | 0.00 | 0.18 | 0.18 | 1 | 1010.4 |
| 20260507014532 | 20 | 166 | 0.0 | 3.2 | 0.00 | 0.18 | 0.18 | 1 | 1010.5 |
| 20260507014029 | 20 | 166 | 0.0 | 3.2 | 0.00 | 0.18 | 0.18 | 1 | 1010.4 |
| 20260507013527 | 20 | 166 | 0.0 | 0.0 | 0.00 | 0.18 | 0.18 | 1 | 1010.4 |
| 20260507013026 | 20 | 166 | 0.0 | 0.0 | 0.00 | 0.18 | 0.18 | 1 | 1010.3 |
| 20260507012525 | 20 | 166 | 0.0 | 0.0 | 0.00 | 0.18 | 0.18 | 1 | 1010.3 |
| 20260507012025 | 20 | 166 | 0.0 | 0.0 | 0.00 | 0.18 | 0.18 | 1 | 1010.2 |
| 20260507011524 | 20 | 166 | 0.0 | 0.0 | 0.00 | 0.18 | 0.18 | 1 | 1010.3 |
| 20260507011020 | 20 | 166 | 0.0 | 0.0 | 0.00 | 0.18 | 0.18 | 1 | 1010.3 |
| 20260507010522 | 20 | 166 | 0.0 | 3.2 | 0.00 | 0.18 | 0.18 | 1 | 1010.2 |
| 20260507010024 | 20 | 166 | 0.0 | 3.2 | 0.00 | 0.18 | 0.18 | 1 | 1010.2 |
| 20260507005516 | 20 | 160 | 0.0 | 0.0 | 0.00 | 0.18 | 0.18 | 1 | 1010.2 |
| 20260507005014 | 20 | 160 | 0.0 | 0.0 | 0.00 | 0.18 | 0.18 | 1 | 1010.2 |
| 20260507004513 | 20 | 160 | 0.0 | 0.0 | 0.00 | 0.18 | 0.18 | 1 | 1010.1 |
| 20260507004012 | 20 | 160 | 0.0 | 0.0 | 0.00 | 0.18 | 0.18 | 1 | 1010.3 |
| 20260507003511 | 20 | 160 | 0.0 | 0.0 | 0.00 | 0.18 | 0.18 | 1 | 1010.2 |
| 20260507003008 | 20 | 160 | 0.0 | 0.0 | 0.00 | 0.18 | 0.18 | 1 | 1010.4 |
| 20260507002507 | 20 | 160 | 0.0 | 0.0 | 0.00 | 0.18 | 0.18 | 1 | 1010.3 |
| 20260507002006 | 21 | 160 | 0.0 | 0.0 | 0.00 | 0.18 | 0.18 | 1 | 1010.3 |
| 20260507001506 | 21 | 160 | 0.0 | 0.0 | 0.00 | 0.18 | 0.18 | 1 | 1010.4 |
| 20260507001006 | 21 | 160 | 0.0 | 1.6 | 0.00 | 0.18 | 0.18 | 1 | 1010.5 |
| 20260507000506 | 21 | 160 | 0.0 | 4.8 | 0.00 | 0.18 | 0.18 | 1 | 1010.5 |
| 20260507000007 | 21 | 160 | 0.0 | 4.8 | 0.00 | 0.18 | 0.18 | 1 | 1010.4 |
| 20260506235507 | 21 | 159 | 0.0 | 4.8 | 0.00 | 0.18 | 0.18 | 1 | 1010.3 |
| 20260506235003 | 21 | 159 | 1.6 | 4.8 | 0.00 | 0.18 | 0.18 | 1 | 1010.2 |
| 20260506234505 | 21 | 121 | 0.0 | 3.2 | 0.00 | 0.18 | 0.18 | 1 | 1010.2 |
| 20260506234004 | 21 | 121 | 1.6 | 6.4 | 0.00 | 0.18 | 0.18 | 1 | 1010.1 |
| 20260506233504 | 21 | 115 | 0.0 | 6.4 | 0.00 | 0.18 | 0.18 | 1 | 1009.9 |
| 20260506233003 | 21 | 197 | 0.0 | 0.0 | 0.00 | 0.18 | 0.18 | 1 | 1010.0 |
| 20260506232504 | 21 | 197 | 0.0 | 4.8 | 0.00 | 0.18 | 0.18 | 1 | 1010.1 |
| 20260506232003 | 21 | 197 | 0.0 | 6.4 | 0.00 | 0.18 | 0.18 | 1 | 1010.0 |
| 20260506231506 | 21 | 197 | 1.6 | 6.4 | 0.00 | 0.18 | 0.18 | 1 | 1010.0 |
| 20260506231003 | 21 | 222 | 0.0 | 0.0 | 0.00 | 0.18 | 0.18 | 1 | 1010.1 |
| 20260506230500 | 21 | 222 | 0.0 | 3.2 | 0.00 | 0.18 | 0.18 | 1 | 1009.9 |
| 20260506230105 | 21 | 222 | 0.0 | 4.8 | 0.00 | 0.18 | 0.18 | 1 | 1010.0 |
| 20260506225558 | 21 | 222 | 0.0 | 4.8 | 0.00 | 0.18 | 0.18 | 1 | 1010.1 |
| 20260506225056 | 21 | 223 | 0.0 | 0.0 | 0.00 | 0.18 | 0.18 | 1 | 1010.1 |
| 20260506224555 | 21 | 223 | 0.0 | 4.8 | 0.00 | 0.18 | 0.18 | 1 | 1010.0 |
| 20260506224053 | 21 | 223 | 1.6 | 4.8 | 0.00 | 0.18 | 0.18 | 1 | 1010.1 |
| 20260506223552 | 21 | 223 | 0.0 | 4.8 | 0.00 | 0.18 | 0.18 | 1 | 1010.0 |
| 20260506223051 | 21 | 223 | 1.6 | 8.0 | 0.00 | 0.18 | 0.18 | 1 | 1010.0 |
| 20260506222551 | 21 | 223 | 1.6 | 8.0 | 0.00 | 0.18 | 0.18 | 1 | 1010.0 |
| 20260506222047 | 21 | 140 | 0.0 | 4.8 | 0.00 | 0.18 | 0.18 | 1 | 1010.0 |
| 20260506221555 | 21 | 136 | 0.0 | 4.8 | 0.00 | 0.18 | 0.18 | 1 | 1010.0 |
| 20260506221045 | 21 | 136 | 0.0 | 6.4 | 0.00 | 0.18 | 0.18 | 1 | 1010.0 |
| 20260506220544 | 21 | 134 | 1.6 | 6.4 | 0.00 | 0.18 | 0.18 | 1 | 1009.9 |